AO-07 1 07530U 74089B 26033.53767745 -.00000041 00000-0 34464-4 0 9992 2 07530 101.9969 45.3508 0012301 29.3531 93.6212 12.53695597343642 UO-11 1 14781U 84021B 26033.49445306 .00001470 00000-0 15679-3 0 9998 2 14781 97.7885 0.7479 0006037 270.5358 89.5168 14.90366572237068 AO-27 1 22825U 93061C 26033.46454525 .00000128 00000-0 65602-4 0 9991 2 22825 98.7058 100.8345 0009232 131.4757 228.7219 14.30900324687731 FO-29 1 24278U 96046B 26033.52867467 .00000002 00000-0 34615-4 0 9992 2 24278 98.5427 260.6969 0350891 85.8223 278.2930 13.53266312454952 GO-32 1 25397U 98043D 26033.47740800 .00000089 00000-0 58552-4 0 9990 2 25397 98.9978 22.8997 0000538 194.6033 165.5129 14.24395426432151 ISS 1 25544U 98067A 26033.53325067 .00009405 00000-0 18249-3 0 9990 2 25544 51.6312 246.1482 0011108 57.0277 303.1777 15.48343227550889 NO-44 1 26931U 01043C 26033.00570461 .00000139 00000-0 82842-4 0 9997 2 26931 67.0489 233.8986 0007069 266.7343 93.2950 14.31890479271092 SO-50 1 27607U 02058C 26033.47718497 .00001627 00000-0 21046-3 0 9990 2 27607 64.5523 185.6606 0074212 287.0549 72.2437 14.82634410244482 CO-55 1 27844U 03031E 26033.50795850 .00000385 00000-0 18573-3 0 9998 2 27844 98.6771 43.7471 0008995 211.2644 148.8001 14.24234728172506 CO-57 1 27848U 03031J 26033.49974978 .00000306 00000-0 15349-3 0 9991 2 27848 98.6800 43.5598 0008628 230.8154 129.2259 14.23534439172214 RS-22 1 27939U 03042A 26033.61105906 .00001569 00000-0 25160-3 0 9999 2 27939 98.3390 214.2052 0011026 341.2310 106.0338 14.73147911195738 CO-58 1 28895U 05043F 26033.37423218 .00001894 00000-0 30867-3 0 9997 2 28895 98.2769 186.3491 0013154 273.3824 86.5877 14.72152432 81911 CO-65 1 32785U 08021C 26033.61433510 .00007646 00000-0 50261-3 0 9993 2 32785 97.8150 12.4868 0010728 120.6309 239.5978 15.07838455964902 CO-66 1 32791U 08021J 26033.49902882 .00018428 00000-0 68695-3 0 9999 2 32791 97.7480 25.5205 0005606 76.4403 283.7459 15.27482533966693 RS-30 1 32953U 08025A 26033.61921192 .00000108 00000-0 70356-3 0 9995 2 32953 82.5001 79.1525 0018428 243.1870 116.7325 12.43174734802974 SRMSAT 1 37841U 11058D 26033.63617566 .00000442 00000-0 96092-4 0 9992 2 37841 19.9707 153.8610 0011664 163.0302 312.8375 14.11533749738785 ZACUBE-1 1 39417U 13066B 26033.44407817 .00007517 00000-0 60084-3 0 9990 2 39417 97.8158 355.1043 0041254 341.6485 18.3247 14.99852043660521 Delfi-N3xt 1 39428U 13066N 26033.57007134 .00011079 00000-0 10113-2 0 9999 2 39428 97.8355 314.2061 0076067 295.0122 64.3211 14.93026211654527 GOMX-1 1 39430U 13066Q 26033.60993558 .00004002 00000-0 60794-3 0 9999 2 39430 97.6578 242.5003 0130226 149.1293 211.7655 14.68937812650155 LO-74 1 39440U 13066AA 26033.50554816 .00003846 00000-0 36710-3 0 9995 2 39440 97.8770 342.1488 0060493 113.0571 247.7042 14.92526059656893 AO-73 1 39444U 13066AE 26033.39618614 .00011228 00000-0 73906-3 0 9994 2 39444 97.8126 2.3696 0036538 303.9434 55.8321 15.07166846659341 DTUSAT-2 1 40030U 14033W 26032.95038521 .00007825 00000-0 44934-3 0 9993 2 40030 98.0801 22.3541 0007688 351.1325 8.9767 15.12805429632220 EO-80 1 40032U 14033Y 26033.61879755 .00009942 00000-0 56754-3 0 9996 2 40032 98.0690 22.3850 0005597 276.5295 83.5297 15.12948167632307 LILACSAT-2 1 40908U 15049K 26033.59327464 .00018859 00000-0 37881-3 0 9995 2 40908 97.4854 65.6262 0008461 33.4575 326.7207 15.46669865574912 Horyu-4 1 41340U 16012D 26033.46576960 .00061953 00000-0 81709-3 0 9991 2 41340 30.9932 313.2513 0002765 22.1377 337.9393 15.57077435549605 Lapan A3 1 41603U 16040E 26033.62840795 .00004079 00000-0 13392-3 0 9991 2 41603 97.1451 34.3217 0011975 131.0480 229.1800 15.32056990534209 CAS-2T 1 41847U 16066G 26033.44637552 .00001905 00000-0 27605-3 0 9991 2 41847 98.3956 110.6742 0343211 178.0913 182.1682 14.44333448485340 TechnoSat 1 42829U 17042E 26033.43519947 .00004088 00000-0 29967-3 0 9991 2 42829 97.4091 196.4447 0017706 188.2332 171.8607 15.03935664466446 AO-91 1 43017U 17073E 26033.08719149 .00007780 00000-0 35588-3 0 9990 2 43017 97.4910 263.1446 0159594 74.3066 287.5705 15.10061231444985 S-Net D 1 43186U 18014G 26033.41336520 .00006718 00000-0 36155-3 0 9999 2 43186 97.5476 299.1095 0009946 118.6739 241.5494 15.15132404438347 S-Net B 1 43187U 18014H 26033.29019977 .00006483 00000-0 34926-3 0 9993 2 43187 97.5481 298.9692 0010662 115.6364 244.5970 15.15102696438322 S-Net A 1 43188U 18014J 26033.28077527 .00006782 00000-0 36486-3 0 9993 2 43188 97.5491 299.1448 0010546 116.0058 244.2261 15.15136851438322 S-Net C 1 43189U 18014K 26033.29337259 .00006266 00000-0 33767-3 0 9992 2 43189 97.5506 299.2109 0012083 110.4493 249.8038 15.15094719436871 Ten-Koh 1 43677U 18084G 26033.47473792 .00003236 00000-0 25058-3 0 9992 2 43677 98.0711 220.2000 0009084 209.3007 150.7709 15.02186124395931 PO-101 1 43678U 18084H 26033.63083351 .00000577 00000-0 51892-4 0 9990 2 43678 98.1071 224.2261 0008054 237.2030 122.8417 14.99783876396048 QO-100 1 43700U 18090A 26033.49406449 .00000134 00000-0 00000-0 0 9994 2 43700 0.0201 91.0921 0002326 262.4360 342.7843 1.00273144 26323 MinXSS-2 1 43758U 18099A 26033.47800614 .00031919 00000-0 85488-3 0 9997 2 43758 97.4707 106.6410 0009172 36.6574 323.5297 15.37912879393368 AO-95 1 43770U 18099N 26033.38232917 .00013214 00000-0 55672-3 0 9996 2 43770 97.4587 94.3116 0010587 101.6113 258.6312 15.23417391392671 SNUSat 2 1 43782U 18099AA 26033.11312322 .00008036 00000-0 38170-3 0 9999 2 43782 97.4267 88.6574 0011909 53.9646 306.2691 15.19431271392502 SnugLite 1 43784U 18099AC 26033.42163566 .00013092 00000-0 54567-3 0 9995 2 43784 97.4081 89.2044 0004070 60.9665 299.1980 15.23825040392773 ITASat 1 1 43786U 18099AE 26033.09789474 .00007416 00000-0 37703-3 0 9998 2 43786 97.4240 87.3495 0014540 102.6274 257.6587 15.17051140392412 EAGLET 1 1 43790U 18099AJ 26033.08028501 .00004319 00000-0 25670-3 0 9998 2 43790 97.4444 86.2965 0012954 92.7440 267.5273 15.11732182391916 ESEO 1 43792U 18099AL 26033.38986923 .00002348 00000-0 17500-3 0 9997 2 43792 97.4174 76.4547 0013458 75.6220 284.6499 15.03758370391548 JO-97 1 43803U 18099AX 26033.16378649 .00015633 00000-0 55848-3 0 9994 2 43803 97.4336 95.8624 0006831 40.4937 319.6810 15.28904567392965 Suomi 100 1 43804U 18099AY 26033.12970970 .00011801 00000-0 47559-3 0 9999 2 43804 97.4398 94.2227 0011442 43.1268 317.0864 15.24934540392812 ISAT 1 43879U 18111D 26033.51452035 .00055585 00000-0 10995-2 0 9996 2 43879 97.5913 320.4720 0009190 77.2523 282.9752 15.46881531390234 UWE-4 1 43880U 18111E 26033.29847592 .00028230 00000-0 76433-3 0 9996 2 43880 97.5871 316.3704 0012019 89.0302 271.2319 15.37572892389993 Sparrow 1 43881U 18111F 26033.60639409 .00059153 00000-0 10546-2 0 9998 2 43881 97.6112 324.6683 0007992 100.3485 259.8667 15.49867660390380 Prox-1 1 44339U 19036A 26033.41416460 .00015706 00000-0 16851-2 0 9994 2 44339 23.9957 292.0935 0006883 276.7798 83.1918 14.86883401353364 Taurus 1 1 44530U 19059C 26033.65121170 .00010391 00000-0 17312-2 0 9997 2 44530 98.6251 190.4159 0008377 13.7609 346.3822 14.70190594338865 TO-108 1 44881U 19093C 26033.61058635 .00001153 00000-0 13705-3 0 9994 2 44881 97.7685 109.0684 0013831 164.3347 195.8299 14.86253935331423 FloripaSat 1 1 44885U 19093G 26033.61835837 .00007345 00000-0 56230-3 0 9994 2 44885 97.7907 127.0554 0011886 160.7811 199.3864 15.02126044332432 RS-44 1 44909U 19096E 26033.45750420 .00000033 00000-0 77300-4 0 9999 2 44909 82.5176 69.2383 0218646 99.3691 263.2201 12.79746810285110 SALSAT 1 46495U 20068K 26033.50211569 .00009220 00000-0 34576-3 0 9998 2 46495 97.8821 28.6199 0012026 60.4103 299.8331 15.27419284294783 CSS (TIANHE-1) 1 48274U 21035A 26033.50218254 .00014324 00000-0 18189-3 0 9991 2 48274 41.4673 62.0121 0006389 343.4134 16.6494 15.59105413272119 CUTE 1 49263U 21088D 26033.64239409 .00042918 00000-0 46075-3 0 9993 2 49263 97.4279 123.9666 0004579 82.0378 278.1400 15.63665907241399 TeikyoSat 4 1 49396U 21102B 26033.53116937 .00001788 00000-0 11697-3 0 9997 2 49396 97.3838 68.1786 0013324 42.6768 317.5493 15.08936521232417 Z-Sat 1 49399U 21102E 26033.56648898 .00007412 00000-0 37644-3 0 9999 2 49399 97.3517 72.9526 0017107 2.7739 357.3586 15.17050036233028 KOSEN 1 1 49402U 21102H 26033.57011104 .00008668 00000-0 35287-3 0 9994 2 49402 97.3394 78.3964 0013354 329.1590 30.8862 15.24658126233496 HO-113 1 50466U 21131B 26033.65241647 .00000906 00000-0 29438-3 0 9992 2 50466 98.5006 126.8051 0004979 133.6228 226.5374 14.41202640215739 SNUGLITE 2 1 52899U 22065F 26033.33830005 .00001378 00000-0 27185-3 0 9999 2 52899 98.1971 178.5990 0008618 88.5858 271.6331 14.64022412191262 UmKA 1 (RS40S) 1 57172U 23091G 26033.59986251 .00007133 00000-0 34305-3 0 9998 2 57172 97.5254 92.8479 0012249 224.4731 135.5521 15.19042422143567 CubeBel-2 (EU11S) 1 57175U 23091K 26033.62913724 .00013996 00000-0 55130-3 0 9993 2 57175 97.5251 95.8583 0009683 224.4881 135.5580 15.25677912143762 RS-38S 1 57189U 23091Z 26033.62438772 .00019380 00000-0 64052-3 0 9999 2 57189 97.5276 100.7604 0007948 182.4294 177.6909 15.31382867144062 SONATE-2 1 59112U 24043Q 26033.34415464 .00032548 00000-0 60938-3 0 9997 2 59112 97.5354 176.6628 0008295 341.7588 18.3364 15.48597965106954 MO-122 1 60209U 24125G 26033.10832757 .00034135 00000-0 59852-3 0 9996 2 60209 97.2488 248.6517 0013872 2.3165 357.8149 15.50386857 88559 GRBBeta 1 60237U 24128C 26033.24129514 .00005014 00000-0 35170-3 0 9996 2 60237 61.9923 329.3055 0054243 106.8763 253.8287 15.05364521 85949 Curium One 1 60242U 24128H 26033.53354502 .00011531 00000-0 69384-3 0 9996 2 60242 61.9811 321.8608 0054009 103.8433 256.8679 15.10029831 86108 ROBUSTA-3A 1 60243U 24128J 26033.36199560 .00009958 00000-0 61248-3 0 9990 2 60243 61.9888 324.2386 0054638 101.1705 259.5538 15.09331450 86053 CatSat 1 60246U 24125J 26033.49901565 .00042264 00000-0 87117-3 0 9990 2 60246 97.2253 245.4781 0029648 321.5066 38.4068 15.45300544 86500 HYPERVIEW-1G (RS66S) 1 61772U 24199AP 26033.63428524 .00054731 00000-0 85944-3 0 9999 2 61772 97.3152 268.9010 0011238 55.5968 304.6347 15.53416233113657 AO-123 1 61781U 24199AY 26033.64458113 .00011638 00000-0 36272-3 0 9996 2 61781 97.3206 263.5608 0015988 72.2363 288.0623 15.33280231113299 HADES-R (SO-124) 1 62690U 25009CK 26032.99082620 .05664363 23962-5 28116-2 0 9998 2 62690 97.3536 123.7794 0009923 302.1245 57.9081 16.20799086 58844 HYDRA-T 1 62692U 25009CM 26028.19742799 .10589489 24473-5 20739-2 0 9999 2 62692 97.3569 119.0624 0010828 297.3030 62.7162 16.31546071 58115 JINJUSat 1B 1 63210U 25052A 26033.46555136 .00017930 00000-0 64255-3 0 9990 2 63210 97.4172 290.3656 0002983 168.8610 191.2697 15.28790170 49487 NUSHSAT 1 1 63211U 25052B 26033.48488336 .00020357 00000-0 69767-3 0 9990 2 63211 97.4154 290.5900 0002745 170.0506 190.0789 15.30221878 49506 TEVEL2-4 1 63213U 25052D 26033.24948875 .00019550 00000-0 68804-3 0 9999 2 63213 97.4078 289.7935 0001508 177.7667 182.3580 15.29366489 49452 TEVEL2-5 1 63214U 25052E 26033.65047074 .00020491 00000-0 72281-3 0 9996 2 63214 97.4066 290.1721 0001523 175.4017 184.7237 15.29282356 49512 TEVEL2-6 1 63215U 25052F 26033.65932565 .00021171 00000-0 74762-3 0 9997 2 63215 97.4076 290.1679 0001542 180.5501 179.5738 15.29238459 49515 TEVEL2-1 1 63217U 25052H 26033.19029640 .00019019 00000-0 68033-3 0 9991 2 63217 97.4054 289.4667 0001111 210.9399 149.1776 15.28839046 49430 TEVEL2-3 1 63218U 25052J 26033.25407890 .00018909 00000-0 67575-3 0 9993 2 63218 97.4053 289.5386 0001123 211.2047 148.9127 15.28871531 49449 TEVEL2-2 1 63219U 25052K 26033.25644546 .00019284 00000-0 68965-3 0 9996 2 63219 97.4054 289.5334 0001115 215.6514 144.4652 15.28844945 49445 TEVEL2-9 1 63237U 25052AD 26033.46842004 .00017896 00000-0 67217-3 0 9994 2 63237 97.4116 289.3729 0004642 260.1127 99.9589 15.27236664 49437 TEVEL2-7 1 63238U 25052AE 26033.42253404 .00017199 00000-0 64985-3 0 9996 2 63238 97.4118 289.2891 0004709 260.5455 99.5252 15.27045891 49423 TEVEL2-8 1 63239U 25052AF 26033.23243443 .00017610 00000-0 66593-3 0 9993 2 63239 97.4114 289.0824 0004745 262.0794 97.9907 15.27014944 49397 HYDRA-W 1 63490U 25052BL 26032.70880506 .00098574 00000-0 16426-2 0 9997 2 63490 97.4021 292.5514 0002857 222.1550 137.9483 15.51649103 49591 HADES-ICM (SO-125) 1 63492U 25052BN 26033.24100884 .00091400 00000-0 17168-2 0 9998 2 63492 97.4028 292.6353 0003381 236.4820 123.6108 15.48265630 49640 Dragonfly 1 65729U 98067XH 26031.05194254 .08662331 12285-4 96629-3 0 9997 2 65729 51.6000 237.6139 0006569 265.0285 94.9990 16.36242872 20999 RSP-03 1 65732U 98067XL 26033.53360359 .00495574 10896-3 13231-2 0 9994 2 65732 51.6167 228.8006 0005263 238.7249 121.3243 15.93927715 21343 BOTAN 1 65942U 98067XP 26033.52540102 .00275567 00000-0 13749-2 0 9997 2 65942 51.6178 234.8063 0005527 226.6486 133.4055 15.80512064 18007 CEVROSAT1 1 66309U 25248S 26033.31358359 .00005924 00000-0 29226-3 0 9990 2 66309 45.4045 124.0458 0002896 342.7336 17.3451 15.18852711 13997 SPIRONE 1 66657U 25274H 26033.29598552 .00003195 00000-0 31353-3 0 9995 2 66657 97.7430 324.6378 0014059 101.0089 259.2713 14.92830065 10090 K-HERO 1 66660U 25274L 26033.54149814 .00002999 00000-0 29108-3 0 9996 2 66660 97.7432 324.9367 0015803 104.9120 255.3851 14.93304921 10136 SNUGLITE-III DURI 1 66661U 25274M 26033.33461995 .00002167 00000-0 21130-3 0 9995 2 66661 97.7428 324.7441 0016304 106.6800 253.6211 14.93408874 10104 SilverSat 1 66909U 98067XV 26033.55533074 .00111112 00000-0 12632-2 0 9999 2 66909 51.6263 243.2974 0002953 182.8938 177.2039 15.61451329 9683 SAKHACUBE-CHOLBON 1 67290U 25313AU 26033.32248154 .00010937 00000-0 48080-3 0 9994 2 67290 97.4080 110.2378 0011084 108.7981 251.4458 15.22010821 5448 QMR-KWT 1 67291U 25313AV 26033.45165791 .00015129 00000-0 65862-3 0 9999 2 67291 97.4078 110.3703 0010816 108.2860 251.9554 15.22269623 5462 IO-86 1 40931U 25360.30710720 .00000000 00000-0 12800-3 0 00 2 40931 6.0006 332.5373 0012733 338.8432 8.1437 14.79075515 01